Zurück zum Katalog

HULIANWANG DIGUI-84

AktivKommunikationPO
NORAD 65819·PAYLOAD·🇨🇳 China

Gestartet Sep 27, 2025 von Taiyuan Satellite Launch Center

Loading…

Nächste Überflüge (nächste 24 Stunden)

TLE

AktuellSource: Space-Track

Epoche: Sep 14, 2026, 07:06 UTC

1 65819U 25220C   26257.29620979  .00000038  00000-0  54195-4 0  9995
2 65819  86.4991  13.6199 0001478  85.5657 274.5646 13.24410844 46716

Verfolge HULIANWANG DIGUI-84 in Echtzeit mit AllMySat

Download on the App Store